Location: Glencliff
(36.1226°N, 86.7183°W)
Time: 11:37:49
(UTC+00:00)

Cosmos 1703 Rocket - Pass Details

Date: 25 August 2019
Orbit: 605 x 634 km, 82.5° (Epoch: 19 September)

Event Time Altitude Azimuth Distance (km) Brightness Sun altitude
Rises 00:56:18 0° 350° (N) 2,916 7.4 -6.7°
Reaches altitude 10° 00:58:33 10° 347° (NNW) 2,000 6.6 -7.2°
Maximum altitude 01:02:57 67° 265° (W) 672 4.0 -8.0°
Drops below altitude 10° 01:07:16 10° 183° (S) 1,968 6.0 -8.8°
Sets 01:09:29 0° 181° (S) 2,863 6.8 -9.2°
